Change the Weather History Date:

Sunday, September 30, 2012

  Actual Average Record
Temperature  
Mean Temperature 85 °F -  
Max Temperature 94 °F 86 °F 100 °F (2013)
Min Temperature 76 °F 76 °F 73 °F (2011)
Cooling Degree Days 20    
Growing Degree Days 35 (Base 50)    
Moisture  
Dew Point 74 °F    
Average Humidity 72    
Maximum Humidity 94    
Minimum Humidity 44    
Precipitation  
Precipitation 0.79 in - - ()
Sea Level Pressure  
Sea Level Pressure 29.74 in    
Wind  
Wind Speed 6 mph ()    
Max Wind Speed 16 mph    
Max Gust Speed -    
Visibility 3.3 miles    
Events Rain , Hail , Thunderstorm    
Averages and records for this station are not official NWS values.
T = Trace of Precipitation, MM = Missing Value Source: Averaged Metar Reports

Daily Weather History Graph

Daily Weather History Graph

Search for Another Location

Airport or City:

Trip Planner

Search our weather history database for the weather conditions in past years. The results will help you decide how hot, cold, wet, or windy it might be!

Date:

Astronomy

Sep. 30, 2012 Rise Set
Actual Time 6:03 AM IST 6:06 PM IST
Civil Twilight 5:42 AM IST 6:27 PM IST
Nautical Twilight 5:18 AM IST 6:51 PM IST
Astronomical Twilight 4:54 AM IST 7:15 PM IST
Moon 6:09 PM IST (9/30) 5:57 AM IST (9/30)
Length of Visible Light 12h 44m
Length of Day
12h 02m
Full, 100% of the Moon is Illuminated
Sep 30
Full
Oct 8
Last Quarter
Oct 15
New
Oct 22
First Quarter
Oct 30
Full

Hourly Weather History & Observations

Time (IST) Temp. Heat Index Dew Point Humidity Pressure Visibility Wind Dir Wind Speed Gust Speed Precip Events Conditions
12:10 AM 78.8 °F - 73.4 °F 83% 29.77 in 3.1 mi NW 3.5 mph - N/A   Haze
12:40 AM 78.8 °F - 73.4 °F 83% 29.77 in 3.1 mi NNW 5.8 mph - N/A   Haze
1:40 AM 78.8 °F - 73.4 °F 83% 29.77 in 3.1 mi NNE 3.5 mph - N/A   Haze
2:10 AM 78.8 °F - 73.4 °F 83% 29.74 in 3.1 mi North 3.5 mph - N/A   Haze
2:30 AM 77 °F - 74 °F 86% 29.74 in 2 mi NW 2.3 mph - -   Haze
2:40 AM 77.0 °F - 73.4 °F 89% 29.74 in 3.1 mi NNE 3.5 mph - N/A   Haze
3:10 AM 77.0 °F - 73.4 °F 89% 29.74 in 3.7 mi WNW 3.5 mph - N/A   Mostly Cloudy
4:10 AM 77.0 °F - 73.4 °F 89% 29.74 in 3.7 mi WNW 5.8 mph - N/A   Mostly Cloudy
5:10 AM 77.0 °F - 73.4 °F 89% 29.74 in 3.7 mi WNW 5.8 mph - N/A   Mostly Cloudy
5:30 AM 77 °F - 74 °F 89% 29.75 in 2 mi WNW 6.9 mph - -   Haze
7:10 AM 78.8 °F - 73.4 °F 83% 29.77 in 2.5 mi WNW 9.2 mph - N/A   Haze
7:40 AM 80.6 °F 85.4 °F 73.4 °F 79% 29.80 in 2.5 mi WNW 9.2 mph - N/A   Haze
8:10 AM 80.6 °F 86.2 °F 75.2 °F 84% 29.80 in 2.5 mi NW 9.2 mph - N/A   Haze
9:10 AM 80.6 °F 85.4 °F 73.4 °F 79% 29.80 in 3.1 mi WNW 11.5 mph - N/A   Haze
9:40 AM 84.2 °F 90.9 °F 73.4 °F 70% 29.80 in 3.1 mi WNW 16.1 mph - N/A   Haze
10:10 AM 86.0 °F 93.4 °F 73.4 °F 66% 29.80 in 3.7 mi West 11.5 mph - N/A   Mostly Cloudy
10:40 AM 87.8 °F 95.6 °F 73.4 °F 62% 29.80 in 3.7 mi West 16.1 mph - N/A   Mostly Cloudy
11:10 AM 87.8 °F 97.6 °F 75.2 °F 66% 29.80 in 3.7 mi WSW 9.2 mph - N/A   Mostly Cloudy
11:30 AM 88 °F - 72 °F 51% 29.79 in 2 mi WNW 10.4 mph - -   Haze
11:40 AM 87.8 °F 97.6 °F 75.2 °F 66% 29.77 in 3.7 mi NW 9.2 mph - N/A   Mostly Cloudy
12:10 PM 89.6 °F 98.2 °F 73.4 °F 59% 29.77 in 5.0 mi South 4.6 mph - N/A   Mostly Cloudy
12:40 PM 89.6 °F 98.2 °F 73.4 °F 59% 29.74 in 5.0 mi WSW 5.8 mph - N/A   Mostly Cloudy
1:10 PM 89.6 °F 98.2 °F 73.4 °F 59% 29.74 in 5.0 mi WSW 4.6 mph - N/A   Scattered Clouds
1:40 PM 89.6 °F 98.2 °F 73.4 °F 59% 29.71 in 5.0 mi WSW 4.6 mph - N/A   Scattered Clouds
2:10 PM 91.4 °F 98.4 °F 71.6 °F 52% 29.68 in 5.0 mi WSW 6.9 mph - N/A   Scattered Clouds
2:30 PM 93 °F - 73 °F 44% 29.68 in 2 mi WSW 6.9 mph - -   Haze
2:40 PM 93.2 °F 102.4 °F 73.4 °F 52% 29.68 in 5.0 mi WSW 6.9 mph - N/A   Partly Cloudy
3:10 PM 93.2 °F 102.4 °F 73.4 °F 52% 29.68 in 5.0 mi WSW 4.6 mph - N/A   Partly Cloudy
3:40 PM 93.2 °F 102.4 °F 73.4 °F 52% 29.65 in 3.7 mi WSW 4.6 mph - N/A   Partly Cloudy
4:10 PM 93.2 °F 105.0 °F 75.2 °F 56% 29.65 in 3.7 mi SSW 4.6 mph - N/A   Partly Cloudy
4:40 PM 93.2 °F 102.4 °F 73.4 °F 52% 29.65 in 3.7 mi WSW 4.6 mph - N/A   Partly Cloudy
5:10 PM 93.2 °F 102.4 °F 73.4 °F 52% 29.65 in 3.7 mi WSW 9.2 mph - N/A   Partly Cloudy
5:30 PM 91 °F - 73 °F 47% 29.66 in 2 mi SSW 6.9 mph - -   Haze
5:40 PM 91.4 °F 100.1 °F 73.4 °F 55% 29.68 in 3.7 mi SSW 6.9 mph - N/A   Partly Cloudy
6:10 PM 91.4 °F 100.1 °F 73.4 °F 55% 29.68 in 3.7 mi SSW 6.9 mph - N/A   Scattered Clouds
6:40 PM 89.6 °F 99.8 °F 75.2 °F 62% 29.68 in 3.7 mi South 13.8 mph - N/A   Mostly Cloudy
7:10 PM 82.4 °F 90.9 °F 77.0 °F 84% 29.74 in 1.2 mi SSW 11.5 mph - N/A Rain Heavy Rain
7:40 PM 78.8 °F - 77.0 °F 94% 29.74 in 1.2 mi SSE 9.2 mph - N/A Rain , Thunderstorm Thunderstorms and Rain
8:30 PM 76 °F - 73 °F 88% 29.76 in 2 mi NNE 4.6 mph - - Hail , Thunderstorm Thunderstorms with Hail
9:10 PM 77.0 °F - 73.4 °F 89% 29.77 in 3.1 mi ENE 4.6 mph - N/A   Haze
9:40 PM 77.0 °F - 73.4 °F 89% 29.77 in 3.1 mi East 2.3 mph - N/A   Haze
10:10 PM 77.0 °F - 73.4 °F 89% 29.80 in 3.1 mi East 2.3 mph - N/A   Haze
10:40 PM 77.0 °F - 73.4 °F 89% 29.80 in 3.1 mi NNW 2.3 mph - N/A   Haze
11:10 PM 78.8 °F - 75.2 °F 89% 29.77 in 3.1 mi NE 3.5 mph - N/A   Haze
11:30 PM 77 °F - 74 °F 89% 29.78 in 2 mi NW 5.8 mph - -   Haze
11:40 PM 77.0 °F - 75.2 °F 94% 29.77 in 3.1 mi NNE 2.3 mph - N/A   Haze